Weather History for Houston / Dunn Helistop, TX

Change the Weather History Date:

Saturday, January 11, 2014

  Actual Average (KHOU) Record (KHOU)
Temperature  
Mean Temperature 65 °F 53 °F  
Max Temperature 73 °F 63 °F 81 °F (1995)
Min Temperature 57 °F 43 °F 12 °F (1982)
Degree Days  
Heating Degree Days 0 13  
Month to date heating degree days 143  
Since 1 July heating degree days 682  
Growing Degree Days 15 (Base 50)    
Moisture  
Dew Point 42 °F    
Average Humidity 53    
Maximum Humidity 100    
Minimum Humidity 20    
Precipitation  
Precipitation 0.00 in 0.10 in 2.78 in (1900)
Month to date precipitation 1.15  
Year to date precipitation 1.15  
Sea Level Pressure  
Sea Level Pressure 30.00 in    
Wind  
Wind Speed 8 mph (WNW)    
Max Wind Speed 16 mph    
Max Gust Speed 23 mph    
Visibility 8 miles    
Events      
T = Trace of Precipitation, MM = Missing Value Source: NWS Daily Summary

Daily Weather History Graph

Daily Weather History Graph

Search for Another Location

Airport:

Trip Planner

Search our weather history database for the weather conditions in past years. The results will help you decide how hot, cold, wet, or windy it might be!

Date:

Astronomy

Jan. 11, 2014 Rise Set
Actual Time 7:17 AM CST 5:41 PM CST
Civil Twilight 6:52 AM CST 6:07 PM CST
Nautical Twilight 6:22 AM CST 6:36 PM CST
Astronomical Twilight 5:53 AM CST 7:05 PM CST
Moon 2:23 PM CST (1/11) 3:27 AM CST (1/11)
Length of Visible Light 11h 15m
Length of Day
10h 23m
Waxing Gibbous, 83% of the Moon is Illuminated
Jan 11
Waxing Gibbous
Jan 15
Full
Jan 23
Last Quarter
Jan 30
New
Feb 6
First Quarter

Hourly Weather History & Observations

Time (CST) Temp. Dew Point Humidity Pressure Visibility Wind Dir Wind Speed Gust Speed Precip Events Conditions
12:15 AM 66.2 °F 64.4 °F 94% 29.83 in 9.0 mi SW 10.4 mph - N/A   Mostly Cloudy
12:35 AM 66.2 °F 64.4 °F 94% 29.83 in 8.0 mi SW 10.4 mph - N/A   Partly Cloudy
12:55 AM 64.4 °F 64.4 °F 100% 29.83 in 7.0 mi SW 12.7 mph - N/A   Clear
1:15 AM 64.4 °F 64.4 °F 100% 29.83 in 5.0 mi SW 6.9 mph - N/A   Mostly Cloudy
1:35 AM 64.4 °F 62.6 °F 94% 29.83 in 5.0 mi SW 8.1 mph - N/A   Mostly Cloudy
1:55 AM 64.4 °F 62.6 °F 94% 29.82 in 4.0 mi SW 5.8 mph - N/A   Mostly Cloudy
2:15 AM 62.6 °F 62.6 °F 100% 29.83 in 3.0 mi South 3.5 mph - N/A   Mostly Cloudy
2:35 AM 62.6 °F 62.6 °F 100% 29.83 in 2.0 mi SW 9.2 mph 18.4 mph N/A   Overcast
3:35 AM 62.6 °F 62.6 °F 100% 29.85 in 2.5 mi West 8.1 mph 16.1 mph N/A   Overcast
3:55 AM 62.6 °F 62.6 °F 100% 29.85 in 3.0 mi WSW 6.9 mph - N/A   Overcast
4:15 AM 60.8 °F 60.8 °F 100% 29.86 in 3.0 mi West 9.2 mph - N/A   Overcast
4:35 AM 60.8 °F 60.8 °F 100% 29.86 in 3.0 mi West 9.2 mph - N/A   Mostly Cloudy
4:55 AM 59.0 °F 59.0 °F 100% 29.87 in 3.0 mi WSW 6.9 mph - N/A   Mostly Cloudy
5:15 AM 59.0 °F 59.0 °F 100% 29.88 in 3.0 mi West 8.1 mph - N/A   Scattered Clouds
5:35 AM 59.0 °F 59.0 °F 100% 29.89 in 3.0 mi WSW 10.4 mph - N/A   Partly Cloudy
5:55 AM 59.0 °F 59.0 °F 100% 29.91 in 2.0 mi West 6.9 mph - N/A   Mostly Cloudy
6:15 AM 59.0 °F 59.0 °F 100% 29.91 in 4.0 mi West 12.7 mph - N/A   Partly Cloudy
6:35 AM 59.0 °F 59.0 °F 100% 29.91 in 5.0 mi WSW 13.8 mph - N/A   Clear
6:55 AM 59.0 °F 59.0 °F 100% 29.93 in 4.0 mi West 13.8 mph 18.4 mph N/A   Clear
7:15 AM 57.2 °F 57.2 °F 100% 29.94 in 3.0 mi West 8.1 mph - N/A   Clear
7:55 AM 59.0 °F 55.4 °F 88% 29.96 in 10.0 mi WNW 11.5 mph 17.3 mph N/A   Clear
8:15 AM 59.0 °F 53.6 °F 82% 29.98 in 10.0 mi WNW 13.8 mph 20.7 mph N/A   Clear
8:35 AM 59.0 °F 53.6 °F 82% 29.99 in 10.0 mi NW 9.2 mph - N/A   Clear
8:55 AM 59.0 °F 53.6 °F 82% 30.01 in 10.0 mi NW 11.5 mph - N/A   Clear
9:35 AM 62.6 °F 53.6 °F 72% 30.04 in 10.0 mi North 10.4 mph - N/A   Clear
9:55 AM 62.6 °F 51.8 °F 68% 30.05 in 10.0 mi North 8.1 mph - N/A   Clear
10:15 AM 64.4 °F 50.0 °F 59% 30.06 in 10.0 mi North 8.1 mph - N/A   Clear
10:35 AM 66.2 °F 46.4 °F 49% 30.06 in 10.0 mi North 8.1 mph - N/A   Clear
10:55 AM 68.0 °F 41.0 °F 37% 30.06 in 10.0 mi North 12.7 mph 23.0 mph N/A   Clear
11:15 AM 68.0 °F 39.2 °F 35% 30.06 in 10.0 mi North 11.5 mph 20.7 mph N/A   Clear
11:35 AM 68.0 °F 37.4 °F 33% 30.06 in 10.0 mi North 12.7 mph - N/A   Clear
11:55 AM 68.0 °F 37.4 °F 33% 30.06 in 10.0 mi NNW 12.7 mph 18.4 mph N/A   Clear
12:15 PM 69.8 °F 37.4 °F 31% 30.05 in 10.0 mi NNW 16.1 mph - N/A   Clear
12:35 PM 69.8 °F 35.6 °F 28% 30.04 in 10.0 mi North 11.5 mph 18.4 mph N/A   Clear
12:55 PM 71.6 °F 32.0 °F 23% 30.03 in 10.0 mi North 5.8 mph 20.7 mph N/A   Clear
1:15 PM 71.6 °F 33.8 °F 25% 30.02 in 10.0 mi NNW 10.4 mph 16.1 mph N/A   Clear
1:35 PM 71.6 °F 33.8 °F 25% 30.02 in 10.0 mi NNW 8.1 mph - N/A   Clear
1:55 PM 73.4 °F 32.0 °F 22% 30.02 in 10.0 mi NW 8.1 mph - N/A   Clear
2:15 PM 73.4 °F 32.0 °F 22% 30.02 in 10.0 mi NNW 9.2 mph 19.6 mph N/A   Clear
2:35 PM 71.6 °F 28.4 °F 20% 30.02 in 10.0 mi NNW 5.8 mph 18.4 mph N/A   Clear
2:55 PM 73.4 °F 32.0 °F 22% 30.02 in 10.0 mi NNW 5.8 mph - N/A   Clear
3:15 PM 71.6 °F 30.2 °F 22% 30.02 in 10.0 mi North 9.2 mph 18.4 mph N/A   Clear
3:35 PM 71.6 °F 32.0 °F 23% 30.02 in 10.0 mi NNW 5.8 mph - N/A   Clear
3:55 PM 71.6 °F 32.0 °F 23% 30.03 in 10.0 mi Calm Calm - N/A   Clear
4:15 PM 71.6 °F 28.4 °F 20% 30.03 in 10.0 mi North 6.9 mph 16.1 mph N/A   Clear
4:35 PM 71.6 °F 28.4 °F 20% 30.03 in 10.0 mi NNW 8.1 mph - N/A   Clear
4:55 PM 71.6 °F 28.4 °F 20% 30.04 in 10.0 mi North 4.6 mph - N/A   Clear
5:15 PM 68.0 °F 28.4 °F 23% 30.05 in 10.0 mi Calm Calm - N/A   Clear
5:35 PM 68.0 °F 26.6 °F 21% 30.05 in 9.0 mi Calm Calm - N/A   Clear
5:55 PM 66.2 °F 26.6 °F 23% 30.06 in 10.0 mi Calm Calm - N/A   Clear
6:15 PM 66.2 °F 26.6 °F 23% 30.06 in 9.0 mi Calm Calm - N/A   Clear
6:35 PM 66.2 °F 26.6 °F 23% 30.06 in 10.0 mi Calm Calm - N/A   Clear
6:55 PM 64.4 °F 26.6 °F 24% 30.07 in 9.0 mi Calm Calm - N/A   Clear
7:15 PM 64.4 °F 26.6 °F 24% 30.07 in 9.0 mi Calm Calm - N/A   Clear
7:35 PM 64.4 °F 28.4 °F 26% 30.08 in 8.0 mi Calm Calm - N/A   Clear
7:55 PM 64.4 °F 28.4 °F 26% 30.09 in 10.0 mi Calm Calm - N/A   Clear
8:15 PM 64.4 °F 26.6 °F 24% 30.10 in 10.0 mi Calm Calm - N/A   Clear
8:35 PM 64.4 °F 26.6 °F 24% 30.10 in 10.0 mi Calm Calm - N/A   Clear
8:55 PM 64.4 °F 26.6 °F 24% 30.11 in 10.0 mi Calm Calm - N/A   Clear
9:15 PM 62.6 °F 28.4 °F 27% 30.11 in 10.0 mi Calm Calm - N/A   Clear
9:35 PM 62.6 °F 26.6 °F 26% 30.11 in 10.0 mi Calm Calm - N/A   Clear
9:55 PM 62.6 °F 32.0 °F 32% 30.11 in 10.0 mi Calm Calm - N/A   Clear
10:35 PM 62.6 °F 30.2 °F 30% 30.11 in 10.0 mi Calm Calm - N/A   Clear
10:55 PM 60.8 °F 28.4 °F 29% 30.11 in 10.0 mi Calm Calm - N/A   Clear
11:15 PM 62.6 °F 28.4 °F 27% 30.10 in 10.0 mi Calm Calm - N/A   Clear
11:35 PM 59.0 °F 32.0 °F 36% 30.10 in 10.0 mi Calm Calm - N/A   Clear
11:55 PM 59.0 °F 32.0 °F 36% 30.10 in 10.0 mi Calm Calm - N/A   Clear